Location: Turtle Rock Observatory
(36.6913°N, 81.9708°W)
Time: 13:04:40
(UTC-05:00)

Daily predictions for brighter satellites

Satellite Brightness Start Highest point End
(mag) Time Altitude Azimuth Time Altitude Azimuth Time Altitude Azimuth
Cosmos 1140 Rocket 4.3 18:40:21 10° SSW 18:45:23 57° WNW 18:50:29 10° N
OAO 3 Rocket 4.3 18:41:06 10° SW 18:45:31 32° SSE 18:49:55 10° E
Cosmos 1741 Rocket 4.0 18:40:58 10° SSW 18:46:11 85° ESE 18:51:25 10° NNE
Cosmos 405 Rocket 4.4 18:45:41 10° NE 18:48:06 15° ENE 18:50:29 10° ESE
ALOS 3.2 18:45:45 10° SE 18:49:37 26° ENE 18:53:30 10° NNE
COSMO-SKYMED 1 3.2 18:46:36 10° N 18:50:54 61° WNW 18:55:09 10° SSW
H-2A R/B 4.4 18:50:08 10° E 18:52:10 14° ENE 18:54:12 10° NE
Cosmos 2219 Rocket 3.0 18:47:31 10° N 18:52:27 31° ENE 18:57:21 10° ESE
Cosmos 2237 4.2 18:46:48 10° NNW 18:52:33 73° ENE 18:58:13 10° SSE
COSMOS 2428 2.8 18:47:21 10° NNW 18:52:57 56° ENE 18:58:32 10° SE
Cosmos 2360 Rocket 2.8 18:48:28 10° NNW 18:54:03 63° WSW 18:59:38 10° S
Meteor 1-19 Rocket 4.3 18:49:03 10° N 18:54:49 83° E 19:00:38 10° S
SJ-6B 3.2 18:54:41 10° SE 18:58:26 42° ENE 19:02:07 10° N
Meteor 2-4 Rocket 3.6 18:55:21 10° N 19:00:47 64° E 19:06:05 10° SSE
USA 229 DEB 4.0 18:54:23 10° NNW 19:01:25 56° NE 19:08:31 10° SE
USA 229 4.0 18:54:29 10° NNW 19:01:31 56° NE 19:08:37 10° SE
Cosmos 2227 Rocket 2.9 18:58:19 10° SSE 19:03:11 31° ESE 19:08:06 10° NE
Cosmos 2219 3.5 18:58:18 10° SSW 19:04:01 74° WNW 19:09:47 10° NNE
BREEZE-M DEB (TANK) 4.3 19:05:21 10° NNW 19:08:28 34° NE 19:15:07 13° E
Resurs 01 Rocket 2.4 19:05:03 10° SE 19:08:51 29° ENE 19:12:40 10° N
Cosmos 1570 Rocket 4.1 19:04:34 10° NNW 19:09:50 86° WSW 19:15:04 10° SSE
SL-08 ROCKET BODY 4.4 19:05:34 10° S 19:11:43 77° E 19:17:55 10° N
Meteor 1-23 Rocket 4.2 19:06:12 10° N 19:11:58 66° E 19:17:36 10° SSE
NOAA 12 4.2 19:07:09 10° SSE 19:12:29 89° W 19:17:50 10° NNW
Resurs 1-3 4.5 19:10:43 10° SE 19:14:27 28° ENE 19:18:11 10° NNE
Cosmos 2327 Rocket 4.5 19:09:03 10° S 19:15:13 67° E 19:21:31 10° NNE
Spot 2 Rocket 4.0 19:10:39 10° SE 19:15:14 36° ENE 19:19:51 10° N
Okean 1 Rocket 4.0 19:11:47 10° SSW 19:16:09 53° W 19:20:34 10° N
Cosmos 1025 Rocket 3.0 19:11:52 10° N 19:16:14 65° E 19:20:35 10° SSE
FREGAT/IRIS 2.6 19:16:42 10° SSE 19:19:47 88° WSW 19:22:53 10° NNW
SL-16 R/B 3.9 19:17:13 10° NNE 19:20:06 14° NE 19:21:06 13° ENE
Cosmos 1892 Rocket 4.1 19:18:01 10° N 19:22:04 36° E 19:26:07 10° SSE
GEOS 3 Rocket 4.2 19:20:47 10° NE 19:25:38 37° ESE 19:30:29 10° S
Atlas Centaur 2 3.7 19:19:20 10° SW 19:26:11 32° SSE 19:30:22 18° ESE
GPS 2-04 Rocket1 2.9 19:22:48 10° W 19:27:01 77° S 19:29:35 24° E
Meteor 2-13 Rocket 4.4 19:22:58 10° S 19:28:53 60° E 19:34:53 10° NNE
OTV 4 0.3 19:27:42 10° W 19:30:41 83° N 19:31:45 36° ENE
NOSS 3-1 (C) 4.5 19:23:34 10° NNW 19:30:46 43° NE 19:36:32 18° ESE
Cosmos 1536 4.4 19:27:04 10° SSW 19:30:48 38° W 19:34:33 10° N
Envisat 4.5 19:32:28 17° ENE 19:32:28 17° ENE 19:35:20 10° NNE
FENGYUN 3A 3.6 19:26:47 10° SSE 19:32:10 73° ENE 19:37:35 10° N
Cosmos 1814 Rocket 4.4 19:28:27 10° N 19:33:18 40° ENE 19:36:39 18° SE
Okean 2 3.3 19:29:46 10° N 19:33:56 70° E 19:38:05 10° SSE
Cosmos 2074 Rocket 4.2 19:29:03 10° S 19:35:17 78° W 19:41:36 10° N
HJ-1C 3.3 19:34:55 10° SSE 19:38:16 89° W 19:41:39 10° NNW
Cosmos 1544 Rocket 3.4 19:37:29 10° S 19:41:47 68° E 19:46:05 10° NNE
Cosmos 1980 3.8 19:37:39 10° NNW 19:43:10 52° ENE 19:46:48 21° SE
Cosmos 2184 Rocket 4.4 19:37:45 10° SSW 19:44:01 69° W 19:50:16 10° N
NOSS 0 Rocket 3.8 19:38:07 10° NNW 19:44:15 68° ENE 19:50:08 11° SSE
Cosmos 2333 Rocket 2.1 19:40:54 10° NNW 19:46:41 71° ENE 19:51:57 12° SSE
Helios 1B rocket 2.7 19:44:02 10° NNE 19:48:01 44° E 19:51:59 10° S
Helios 1A 3.2 19:52:56 44° E 19:53:15 45° ENE 19:57:13 10° N
Cosmos 1975 2.7 19:50:28 10° S 19:54:26 62° E 19:58:27 10° NNE
Cosmos 1500 3.0 19:52:54 10° S 19:56:39 62° E 20:00:23 10° NNE
Cosmos 1437 2.7 19:53:58 10° N 19:56:59 70° NNE 19:56:59 70° NNE
CZ-3 Stage 3 4.4 19:16:28 10° SW 20:02:41 44° S 20:07:53 28° ESE
Cosmos 1486 Rocket 4.0 19:57:54 10° SSW 20:03:13 90° SSE 20:08:34 10° NNE
Nadezhda 3 Rocket 3.8 19:57:13 10° N 20:03:24 74° E 20:09:36 10° SSE
Cosmos 1515 3.5 20:01:34 10° N 20:05:27 80° E 20:05:38 76° SE
Cosmos 2082 3.7 20:01:13 10° SSW 20:06:56 83° WNW 20:12:42 10° NNE
Cosmos 841 Rocket 3.6 20:05:45 10° N 20:10:38 50° ENE 20:10:38 50° ENE
Spot 1 3.8 20:11:15 77° ESE 20:11:28 81° ENE 20:15:39 10° N
ATLAS CENTAUR R/B 2.9 20:09:44 10° WSW 20:13:13 28° NW 20:13:24 28° NW
Cosmos 2154 Rocket 4.1 20:07:28 10° S 20:13:49 77° W 20:20:10 10° N
Cosmos 2341 Rocket 3.9 20:09:25 10° S 20:15:46 82° E 20:22:12 10° N
Cosmos 1455 Rocket 3.7 20:14:43 10° SSW 20:19:00 53° W 20:23:16 10° N
Cosmos 1763 Rocket 3.3 20:14:23 10° NNW 20:19:33 77° ENE 20:20:13 66° SE
Hubble Space Telescope 2.5 20:17:26 10° WSW 20:20:16 23° SSW 20:20:16 23° SSW
Cosmos 1503 Rocket 4.2 20:16:23 10° S 20:20:30 53° SSE 20:20:30 53° SSE
Cosmos 2297 Rocket 2.5 20:20:27 10° SSW 20:26:02 66° WNW 20:31:41 10° NNE
H-2A R/B 4.4 20:22:47 10° SSW 20:26:08 32° W 20:29:33 10° NNW
ALOS 4.3 20:23:00 10° SSW 20:26:56 27° W 20:30:53 10° NW
Cosmos 2237 Rocket 2.3 20:21:45 10° NNW 20:27:27 72° WSW 20:29:46 37° S
Meteor 2-19 Rocket 4.3 20:21:35 10° S 20:27:40 73° E 20:33:48 10° N
SEDSat Delta rocket 4.4 20:22:13 10° WSW 20:28:31 44° SSE 20:28:44 44° SSE
Cosmos 332 Rocket 3.8 20:23:44 10° NNW 20:28:03 69° N 20:28:03 69° N
OAO 3 Rocket 3.4 20:23:51 10° WSW 20:28:19 63° SSW 20:28:19 63° SSW
Meteor 2-8 Rocket 4.2 20:23:15 10° N 20:29:20 78° E 20:30:43 55° SSE
Cosmos 1066 Rocket 4.1 20:29:33 10° N 20:35:08 83° W 20:36:02 63° S
Cosmos 2219 Rocket 3.7 20:31:23 10° NW 20:36:20 33° WSW 20:41:16 10° SSW
Cosmos 371 Rocket 4.1 20:32:30 10° NNW 20:35:46 42° N 20:35:46 42° N
Resurs 01 Rocket 4.0 20:41:55 10° SW 20:45:18 21° W 20:48:41 10° NW
Cosmos 2227 Rocket 3.8 20:42:04 10° SW 20:47:07 33° WNW 20:52:13 10° N
ATLAS 3B CENTAUR R/B 4.5 20:28:46 10° WSW 20:56:35 53° S 20:59:52 47° SE
SL-16 R/B 3.1 20:59:13 10° NNW 21:03:01 44° NNW 21:03:01 44° NNW
NOSS 3-1 (A) 4.1 20:57:30 10° NW 21:05:18 74° WSW 21:06:34 64° S
Envisat 4.5 21:12:40 32° NW 21:12:40 32° NW 21:15:36 10° NNW
ATLAS 2AS CENTAUR R/B 3.9 21:03:34 10° NNW 21:09:17 36° NNE 21:09:17 36° NNE
Atlas Centaur 2 3.6 21:08:21 10° WSW 21:13:02 35° SW 21:13:02 35° SW
